• în Republica Moldova
  • Lista ţărilor
  • Pe 7 zile
  • Temperatura apei
  • Hartă satelitară
  • Meteo pe hartă
  • Widget-uri
  • user-avatar
    Intrare

    Meteo pe oră la Mezheninka

    Astăzi, 21 Iulie, Sâmbătă

    Timp Temperatura Precipitaţii Vânt Presiune Umiditate
    00:00 +17°C° 0 mm 0 m/s 731 mmHg 97%
    01:00 +17°C° 0 mm 0 m/s 731 mmHg 98%
    02:00 +19°C° 0 mm 1 m/s 731 mmHg 98%
    03:00 +19°C° 0 mm 1 m/s 731 mmHg 98%
    04:00 +19°C° 0 mm 1 m/s 731 mmHg 98%
    05:00 +19°C° 0 mm 1 m/s 731 mmHg 98%
    06:00 +21°C° 0 mm 1 m/s 731 mmHg 95%
    07:00 +22°C° 0 mm 1 m/s 732 mmHg 92%
    08:00 +23°C° 0 mm 1 m/s 732 mmHg 88%
    09:00 +25°C° 0,6 mm 1 m/s 732 mmHg 83%
    10:00 +26°C° 0,6 mm 1 m/s 732 mmHg 78%
    11:00 +27°C° 0,6 mm 2 m/s 732 mmHg 73%
    12:00 +27°C° 1 mm 2 m/s 732 mmHg 74%
    13:00 +27°C° 1 mm 2 m/s 732 mmHg 75%
    14:00 +27°C° 1 mm 3 m/s 732 mmHg 76%
    15:00 +27°C° 0,4 mm 2 m/s 732 mmHg 77%
    16:00 +26°C° 0,4 mm 2 m/s 732 mmHg 77%
    17:00 +26°C° 0,4 mm 2 m/s 732 mmHg 78%
    18:00 +25°C° 0,4 mm 2 m/s 732 mmHg 83%
    19:00 +23°C° 0,4 mm 2 m/s 732 mmHg 87%
    20:00 +22°C° 0,4 mm 1 m/s 733 mmHg 92%
    21:00 +22°C° 0,1 mm 1 m/s 733 mmHg 93%
    22:00 +21°C° 0,1 mm 1 m/s 733 mmHg 95%
    23:00 +21°C° 0,1 mm 1 m/s 733 mmHg 96%

    Mâine, 22 Iulie, Duminică

    Timp Temperatura Precipitaţii Vânt Presiune Umiditate
    00:00 +20°C° 0 mm 1 m/s 733 mmHg 96%
    01:00 +20°C° 0 mm 1 m/s 733 mmHg 97%
    02:00 +20°C° 0 mm 1 m/s 733 mmHg 97%
    03:00 +20°C° 0,3 mm 1 m/s 733 mmHg 97%
    04:00 +19°C° 0,3 mm 2 m/s 733 mmHg 97%
    05:00 +19°C° 0,3 mm 2 m/s 733 mmHg 97%
    06:00 +20°C° 0,3 mm 2 m/s 733 mmHg 96%
    07:00 +21°C° 0,3 mm 2 m/s 733 mmHg 94%
    08:00 +21°C° 0,3 mm 3 m/s 734 mmHg 92%
    09:00 +22°C° 0,2 mm 3 m/s 734 mmHg 91%
    10:00 +22°C° 0,2 mm 3 m/s 734 mmHg 89%
    11:00 +22°C° 0,2 mm 3 m/s 734 mmHg 88%
    12:00 +22°C° 0,1 mm 3 m/s 734 mmHg 87%
    13:00 +22°C° 0,1 mm 3 m/s 734 mmHg 85%
    14:00 +22°C° 0,1 mm 3 m/s 734 mmHg 84%
    15:00 +22°C° 0 mm 3 m/s 734 mmHg 85%
    16:00 +22°C° 0 mm 3 m/s 734 mmHg 85%
    17:00 +21°C° 0 mm 3 m/s 735 mmHg 86%
    18:00 +21°C° 0 mm 3 m/s 735 mmHg 88%
    19:00 +20°C° 0 mm 3 m/s 735 mmHg 90%
    20:00 +20°C° 0 mm 2 m/s 735 mmHg 92%
    21:00 +20°C° 0 mm 2 m/s 735 mmHg 92%
    22:00 +19°C° 0 mm 2 m/s 735 mmHg 93%
    23:00 +19°C° 0 mm 2 m/s 735 mmHg 93%

    Poimâine, 23 Iulie, Luni

    Timp Temperatura Precipitaţii Vânt Presiune Umiditate
    00:00 +19°C° 0 mm 2 m/s 735 mmHg 94%
    01:00 +19°C° 0 mm 2 m/s 735 mmHg 94%
    02:00 +18°C° 0 mm 2 m/s 735 mmHg 95%
    03:00 +18°C° 0 mm 2 m/s 735 mmHg 95%
    04:00 +18°C° 0 mm 2 m/s 735 mmHg 96%
    05:00 +17°C° 0 mm 2 m/s 735 mmHg 96%
    06:00 +18°C° 0 mm 3 m/s 735 mmHg 91%
    07:00 +19°C° 0 mm 3 m/s 735 mmHg 87%
    08:00 +20°C° 0 mm 4 m/s 735 mmHg 82%
    09:00 +20°C° 0 mm 4 m/s 735 mmHg 82%
    10:00 +20°C° 0 mm 4 m/s 736 mmHg 82%
    11:00 +20°C° 0 mm 4 m/s 736 mmHg 81%
    12:00 +21°C° 0,1 mm 3 m/s 736 mmHg 80%
    13:00 +21°C° 0,1 mm 3 m/s 735 mmHg 78%
    14:00 +21°C° 0,1 mm 3 m/s 735 mmHg 76%
    15:00 +21°C° 0,1 mm 3 m/s 735 mmHg 76%
    16:00 +22°C° 0,1 mm 3 m/s 735 mmHg 76%
    17:00 +22°C° 0,1 mm 3 m/s 735 mmHg 77%
    18:00 +21°C° 0,1 mm 3 m/s 736 mmHg 82%
    19:00 +20°C° 0,1 mm 2 m/s 736 mmHg 87%
    20:00 +18°C° 0,1 mm 2 m/s 736 mmHg 92%
    21:00 +18°C° 0 mm 2 m/s 736 mmHg 94%
    22:00 +17°C° 0 mm 2 m/s 736 mmHg 96%
    23:00 +16°C° 0 mm 2 m/s 736 mmHg 98%

    24 Iulie, Marţi

    Timp Temperatura Precipitaţii Vânt Presiune Umiditate
    00:00 +16°C° 0 mm 2 m/s 736 mmHg 98%
    01:00 +16°C° 0 mm 2 m/s 736 mmHg 98%
    02:00 +16°C° 0 mm 2 m/s 736 mmHg 98%
    03:00 +16°C° 0 mm 2 m/s 736 mmHg 97%
    04:00 +16°C° 0 mm 2 m/s 736 mmHg 97%
    05:00 +16°C° 0 mm 3 m/s 736 mmHg 96%
    06:00 +16°C° 0,1 mm 3 m/s 736 mmHg 95%
    07:00 +16°C° 0,1 mm 3 m/s 736 mmHg 95%
    08:00 +17°C° 0,1 mm 3 m/s 736 mmHg 94%
    09:00 +17°C° 0,3 mm 3 m/s 736 mmHg 93%
    10:00 +18°C° 0,3 mm 3 m/s 736 mmHg 92%
    11:00 +18°C° 0,3 mm 3 m/s 736 mmHg 90%
    12:00 +19°C° 0,3 mm 3 m/s 736 mmHg 91%
    13:00 +19°C° 0,3 mm 3 m/s 736 mmHg 92%
    14:00 +19°C° 0,3 mm 3 m/s 736 mmHg 93%
    15:00 +19°C° 0,1 mm 3 m/s 736 mmHg 92%
    16:00 +20°C° 0,1 mm 3 m/s 737 mmHg 91%
    17:00 +20°C° 0,1 mm 3 m/s 737 mmHg 91%
    18:00 +19°C° 0 mm 3 m/s 737 mmHg 93%
    19:00 +19°C° 0 mm 2 m/s 737 mmHg 95%
    20:00 +18°C° 0 mm 2 m/s 737 mmHg 97%
    21:00 +18°C° 0,1 mm 2 m/s 737 mmHg 98%
    22:00 +18°C° 0,1 mm 2 m/s 737 mmHg 98%
    23:00 +19°C° 0,1 mm 1 m/s 737 mmHg 99%

    25 Iulie, Miercuri

    Timp Temperatura Precipitaţii Vânt Presiune Umiditate
    00:00 +18°C° 0,1 mm 2 m/s 737 mmHg 99%
    01:00 +18°C° 0,1 mm 2 m/s 737 mmHg 99%
    02:00 +18°C° 0,1 mm 2 m/s 737 mmHg 99%
    03:00 +18°C° 0,1 mm 2 m/s 737 mmHg 98%
    04:00 +19°C° 0,1 mm 2 m/s 738 mmHg 98%
    05:00 +19°C° 0,1 mm 3 m/s 738 mmHg 98%
    06:00 +19°C° 0,2 mm 3 m/s 738 mmHg 97%
    07:00 +20°C° 0,2 mm 3 m/s 738 mmHg 96%
    08:00 +20°C° 0,2 mm 3 m/s 739 mmHg 95%
    09:00 +21°C° 0,1 mm 3 m/s 739 mmHg 90%
    10:00 +22°C° 0,1 mm 3 m/s 739 mmHg 85%
    11:00 +22°C° 0,1 mm 4 m/s 740 mmHg 80%
    12:00 +23°C° 0 mm 4 m/s 740 mmHg 73%
    13:00 +25°C° 0 mm 4 m/s 740 mmHg 66%
    14:00 +26°C° 0 mm 4 m/s 740 mmHg 59%
    15:00 +26°C° 0,1 mm 4 m/s 740 mmHg 62%
    16:00 +26°C° 0,1 mm 3 m/s 740 mmHg 65%
    17:00 +26°C° 0,1 mm 3 m/s 740 mmHg 68%
    18:00 +24°C° 0 mm 3 m/s 740 mmHg 73%
    19:00 +22°C° 0 mm 3 m/s 740 mmHg 77%
    20:00 +20°C° 0 mm 2 m/s 740 mmHg 81%
    21:00 +20°C° 0 mm 3 m/s 740 mmHg 81%
    22:00 +19°C° 0 mm 3 m/s 740 mmHg 81%
    23:00 +18°C° 0 mm 3 m/s 740 mmHg 80%

    26 Iulie, Joi

    Timp Temperatura Precipitaţii Vânt Presiune Umiditate
    00:00 +18°C° 0 mm 3 m/s 740 mmHg 81%
    01:00 +18°C° 0 mm 3 m/s 740 mmHg 82%
    02:00 +17°C° 0 mm 3 m/s 740 mmHg 83%
    03:00 +17°C° 0 mm 3 m/s 741 mmHg 83%
    04:00 +17°C° 0 mm 3 m/s 741 mmHg 82%
    05:00 +17°C° 0 mm 3 m/s 741 mmHg 81%
    06:00 +19°C° 0 mm 3 m/s 741 mmHg 77%
    07:00 +21°C° 0 mm 4 m/s 742 mmHg 72%
    08:00 +22°C° 0 mm 4 m/s 742 mmHg 67%
    09:00 +25°C° 0 mm 4 m/s 742 mmHg 63%
    10:00 +26°C° 0 mm 4 m/s 742 mmHg 59%
    11:00 +27°C° 0 mm 5 m/s 742 mmHg 55%
    12:00 +28°C° 0,1 mm 5 m/s 742 mmHg 54%
    13:00 +28°C° 0,1 mm 5 m/s 742 mmHg 52%
    14:00 +28°C° 0,1 mm 5 m/s 742 mmHg 50%
    15:00 +28°C° 0 mm 4 m/s 742 mmHg 52%
    16:00 +28°C° 0 mm 4 m/s 742 mmHg 54%
    17:00 +28°C° 0 mm 3 m/s 742 mmHg 56%
    18:00 +26°C° 0 mm 3 m/s 742 mmHg 64%
    19:00 +24°C° 0 mm 3 m/s 742 mmHg 72%
    20:00 +21°C° 0 mm 2 m/s 742 mmHg 80%
    21:00 +21°C° 0 mm 2 m/s 743 mmHg 83%
    22:00 +20°C° 0 mm 2 m/s 743 mmHg 86%
    23:00 +19°C° 0 mm 2 m/s 743 mmHg 89%
    Arată mai mult